Regional Weather Roundup
Issued by NWS

Home | Current Version | Previous Version | Graphics & Text | Print | Product List | Glossary On
Versions: 1 2 3 4 5 6 7 8 9 10 11 12 13 14 15 16 17 18 19 20 21 22 23 24 25 26 27 28 29 30 31 32 33 34 35 36 37 38 39 40 41 42 43 44 45 46 47 48 49 50
000
ASUS43 KLOT 020500
RWRIL

ILLINOIS REGIONAL WEATHER ROUNDUP
NATIONAL WEATHER SERVICE CHICAGO/ROMEOVILLE IL
1200 AM CDT WED SEP 02 2015

NOTE: "FAIR" INDICATES FEW OR NO CLOUDS BELOW 12,000 FEET WITH NO
SIGNIFICANT WEATHER AND/OR OBSTRUCTIONS TO VISIBILITY.

* THESE STATIONS ARE NOT UNDER NWS QUALITY CONTROL. THEY ALSO MAY NOT
  REPORT WEATHER SUCH AS PRECIPITATION OR FOG.

ILZ001-002-007-009-015-016-024-020600-
NORTHWEST ILLINOIS

CITY           SKY/WX    TMP DP  RH WIND       PRES   REMARKS
MOLINE         PTCLDY    77  68  73 S5        30.02S
STERLING*      CLEAR    N/A N/A N/A SW3       30.01S
$$

ILZ003-004-008-010-011-017-018-020600-
NORTH CENTRAL ILLINOIS

CITY           SKY/WX    TMP DP  RH WIND       PRES   REMARKS
ROCKFORD       MOCLDY    73  69  87 CALM      30.04S
FREEPORT*      PTCLDY    75  69  82 SW10      30.04S
$$

ILZ005-006-012>014-019>023-020600-
NORTHEAST ILLINOIS

CITY           SKY/WX    TMP DP  RH WIND       PRES   REMARKS
CHICAGO-OHARE  PTCLDY    78  72  81 SW9       30.03S HX  80
CHICAGO-MIDWAY PTCLDY    79  70  74 SW10      30.04R HX  82
AURORA         CLEAR     74  70  87 SW6       30.05S
LANSING*       CLEAR     73  69  85 SW6       30.06R
WAUKEGAN       CLEAR     77  72  84 SW12      30.02R
DUPAGE AIRPORT CLEAR     74  69  85 S6        30.04S
WHEELING       CLEAR     79  71  76 SW8       30.04S HX  82
NORTHERLY ISL    N/A     79  68  69 S8          N/A  HX  81
$$

LMZ740>746-020600-
SOUTHERN LAKE MICHIGAN

STATION/POSITION SKY/WX   TEMP    WIND        PRES    VSBY  WAVE
                          AIR SEA DIR/SP/G                  HT/PER
                          (F)     (DEG/KT/KT) (MB)    (MI)  (FT/S)
SOUTHERN BUOY              73 70  200/ 12/ 14 1016.1R
WILMETTE HARBOR            70 59   10/  8/  8   N/A           1
HARRISON CRIB              78     210/ 19/ 26   N/A
BURNHAM HARBOR             79     210/  7/ 11   N/A
CALUMET HARBOR             78     210/  8/ 13   N/A
BURNS HARBOR               76     190/ 13/ 16 1017.9S
MICHIGAN CITY              77     170/ 13/ 15   N/A
MICHIGAN CITY 6N           76 72  210/ 10/ 12   N/A           1/ 2
ST. JOSEPH                 75 73  230/  6/  8   N/A           1/ 2
$$

ILZ025>027-034>036-040-047-049-050-058-095>099-020600-
WEST-CENTRAL ILLINOIS

CITY           SKY/WX    TMP DP  RH WIND       PRES   REMARKS
QUINCY         CLEAR     73  69  87 S5        30.06S
$$

ILZ028>032-037-038-041>044-048-051>054-059>061-020600-
CENTRAL ILLINOIS

CITY           SKY/WX    TMP DP  RH WIND       PRES   REMARKS
DECATUR        PTCLDY    77  69  76 S9        30.09S
PEORIA         CLEAR     77  68  73 S3        30.06S
SPRINGFIELD    CLEAR     79  70  74 S10       30.07S HX  82
TAYLORVILLE    NOT AVBL
$$

ILZ033-039-045-046-055>057-062-063-020600-
EAST-CENTRAL ILLINOIS

CITY           SKY/WX    TMP DP  RH WIND       PRES   REMARKS
CHAMPAIGN      PTCLDY    71  70  96 S5        30.10S FOG
MATTOON        MOCLDY    74  66  76 SW5       30.09S
$$

ILZ079-100>102-020600-
SOUTHWEST ILLINOIS

CITY           SKY/WX    TMP DP  RH WIND       PRES   REMARKS
BELLEVILLE     CLEAR     73  73 100 CALM      30.07S
CAHOKIA*       CLEAR     77  69  76 S3        30.07F
SPARTA*        CLEAR     75  71  86 S3        30.10S
$$

ILZ064>066-069>071-074>076-080>082-084>086-088>090-092>094-020600-
SOUTH-CENTRAL ILLINOIS

CITY           SKY/WX    TMP DP  RH WIND       PRES   REMARKS
CARBONDALE     CLEAR     70  68  93 S3        30.09F
MT. VERNON     CLEAR     66  61  82 CALM      30.11S
$$

ILZ067-068-072-073-078-083-087-091-020600-
SOUTHEAST ILLINOIS

CITY           SKY/WX    TMP DP  RH WIND       PRES   REMARKS
LAWRENCEVILLE  CLEAR     71  69  93 CALM      30.11S
FLORA*         CLEAR     70  67  91 CALM      30.10S
ROBINSON*      CLEAR     67  66  96 CALM      30.11S FOG
$$

ABBREVIATIONS USED IN REMARKS
   TC - TEMPERATURE IN CELSIUS
  WCI - WIND CHILL INDEX
   HX - HEAT INDEX
  VSB - VISIBILITY
$$



USA.gov is the U.S. government's official web portal to all federal, state and local government web resources and services.